Location: Marcé
(47.5801°N, 0.3280°W)
Time: 22:03:51
(UTC+01:00)

Altair - Pass Details

Date: 14 December 2021
Orbit: 1501 x 1683 km, 47.2° (Epoch: 20 January)

Event Time Altitude Azimuth Distance (km) Brightness Sun altitude
Rises 18:18:15 0° 284° (WNW) 4,765 11.0 -10.9°
Reaches altitude 10° 18:21:23 10° 283° (WNW) 3,756 10.4 -11.4°
Maximum altitude 18:30:47 73° 201° (SSW) 1,583 7.7 -12.9°
Drops below altitude 10° 18:39:55 10° 119° (ESE) 3,652 9.1 -14.3°
Enters shadow 18:42:18 - 117° (ESE) 4,427 9.5 -14.7°
Sets 18:42:55 0° 117° (ESE) 4,627 - -14.8°
